Bauerfield Efate, Vanuatu

7:49 AM VUT on December 11, 2016 (GMT +1100)
Bauerfield Efate

Weather History for 91557 - November, 2013

Change the Weather History Date:

Saturday, November 16, 2013

  Actual Average Record
Temperature  
Mean Temperature 78 °F -  
Max Temperature 86 °F - - ()
Min Temperature 71 °F - - ()
Cooling Degree Days 14    
Growing Degree Days 28 (Base 50)    
Moisture  
Dew Point 71 °F    
Average Humidity 82    
Maximum Humidity 95    
Minimum Humidity 62    
Precipitation  
Precipitation 0.02 in - - ()
Sea Level Pressure  
Sea Level Pressure 29.82 in    
Wind  
Wind Speed 4 mph ()    
Max Wind Speed 10 mph    
Max Gust Speed -    
Visibility 7.7 miles    
Events      
T = Trace of Precipitation, MM = Missing Value Source: Averaged Metar Reports

Daily Weather History Graph

Daily Weather History Graph

Search for Another Location

Airport or City:

Trip Planner

Search our weather history database for the weather conditions in past years. The results will help you decide how hot, cold, wet, or windy it might be!

Date:

Astronomy

Nov. 16, 2013 Rise Set
Actual Time 5:03 AM VUT 6:00 PM VUT
Civil Twilight 4:39 AM VUT 6:23 PM VUT
Nautical Twilight 4:12 AM VUT 6:50 PM VUT
Astronomical Twilight 3:44 AM VUT 7:18 PM VUT
Moon 4:46 PM VUT (11/16) 3:45 AM VUT (11/16)
Length of Visible Light 13h 43m
Length of Day
12h 57m
Waxing Gibbous, 97% of the Moon is Illuminated
Nov 16
Waxing Gibbous
Nov 18
Full
Nov 26
Last Quarter
Dec 3
New
Dec 10
First Quarter

Hourly Weather History & Observations

Time (VUT) Temp. Heat Index Dew Point Humidity Pressure Visibility Wind Dir Wind Speed Gust Speed Precip Events Conditions
12:00 AM 71.6 °F - 69.8 °F 94% 29.86 in 6.2 mi ESE 3.5 mph - N/A   Mostly Cloudy
1:00 AM 69.8 °F - 68.0 °F 94% 29.83 in 6.2 mi ESE 4.6 mph - N/A   Scattered Clouds
2:00 AM 74 °F - 70 °F 83% 29.81 in 12 mi ENE 4.6 mph - -   Partly Cloudy
2:00 AM 73.4 °F - 69.8 °F 88% 29.80 in 6.2 mi ENE 4.6 mph - N/A   Scattered Clouds
3:00 AM 73.4 °F - 68.0 °F 83% 29.77 in 6.2 mi East 6.9 mph - N/A   Partly Cloudy
4:00 AM 73.4 °F - 68.0 °F 83% 29.80 in 6.2 mi Variable 2.3 mph - N/A   Partly Cloudy
5:00 AM 72 °F - 69 °F 89% 29.81 in 12 mi 2.3 mph - -   Partly Cloudy
5:00 AM 71.6 °F - 68.0 °F 88% 29.80 in 6.2 mi Variable 2.3 mph - N/A   Scattered Clouds
6:00 AM 71.6 °F - 69.8 °F 94% 29.80 in 6.2 mi Variable 2.3 mph - N/A   Partly Cloudy
7:00 AM 78.8 °F - 71.6 °F 78% 29.80 in 6.2 mi East 5.8 mph - N/A   Partly Cloudy
8:00 AM 82 °F - 72 °F 66% 29.82 in 12 mi ENE 8.1 mph - -   Partly Cloudy
8:00 AM 82.4 °F 87.2 °F 71.6 °F 70% 29.83 in 6.2 mi East 10.4 mph - N/A   Partly Cloudy
10:00 AM 84.2 °F 89.6 °F 71.6 °F 66% 29.83 in 6.2 mi ENE 6.9 mph - N/A   Scattered Clouds
11:00 AM 86 °F - 75 °F 62% 29.82 in 12 mi NE 3.5 mph - -   Partly Cloudy
11:00 AM 86.0 °F 93.4 °F 73.4 °F 66% 29.80 in 6.2 mi NE 3.5 mph - N/A   Scattered Clouds
12:00 PM 86.0 °F 93.4 °F 73.4 °F 66% 29.80 in 6.2 mi NE 3.5 mph - N/A   Scattered Clouds
1:00 PM 84.2 °F 90.9 °F 73.4 °F 70% 29.80 in 6.2 mi SW 9.2 mph - N/A   Mostly Cloudy
2:00 PM 83 °F - 75 °F 70% 29.80 in 12 mi West 6.9 mph - -   Partly Cloudy
2:00 PM 82.4 °F 88.2 °F 73.4 °F 74% 29.77 in 6.2 mi West 6.9 mph - N/A   Mostly Cloudy
3:00 PM 78.8 °F - 73.4 °F 83% 29.80 in 6.2 mi Variable 3.5 mph - N/A   Partly Cloudy
4:00 PM 78.8 °F - 73.4 °F 83% 29.80 in 6.2 mi East 6.9 mph - N/A   Mostly Cloudy
5:00 PM 80 °F - 73 °F 73% 29.81 in 12 mi East 8.1 mph - -   Partly Cloudy
5:00 PM 78.8 °F - 71.6 °F 78% 29.80 in 6.2 mi East 8.1 mph - N/A   Scattered Clouds
6:00 PM 77.0 °F - 73.4 °F 89% 29.83 in 6.2 mi Variable 3.5 mph - N/A   Scattered Clouds
7:00 PM 75.2 °F - 71.6 °F 89% 29.83 in 6.2 mi Variable 2.3 mph - N/A   Mostly Cloudy
8:00 PM 75 °F - 73 °F 91% 29.87 in 12 mi Calm Calm - -   Partly Cloudy
8:00 PM 73.4 °F - 71.6 °F 94% 29.86 in 6.2 mi Calm Calm - N/A   Mostly Cloudy
9:00 PM 73.4 °F - 71.6 °F 94% 29.86 in 6.2 mi Calm Calm - N/A   Scattered Clouds
10:00 PM 71.6 °F - 69.8 °F 94% 29.86 in 6.2 mi Calm Calm - N/A   Mostly Cloudy
11:00 PM 72 °F - 71 °F 95% 29.86 in 12 mi 2.3 mph - -   Partly Cloudy
11:00 PM 71.6 °F - 69.8 °F 94% 29.86 in 6.2 mi Variable 2.3 mph - N/A   Mostly Cloudy